CamptonHillsWeather.com

Find the Weather for any City, State  
or Zipcode, or Country:

Campton Hills, IL Weather
Local Radar

Local Radar

Graphs, Details
Graphs and Gauges
Detailed Weather
Detailed Reports
Ajax Version (old)
Central Kane Co Summary
Davis Current Weather Graphs
Davis 24 Hour Weather History

CW3778 Data

Weather Underground
Maps
Temperature
Heat Index
Windchill
Humidity
Radar
Dew Point
Wind
Visibility
Visible Satellite
Satellite
Fronts
Snow Depth
Jet Stream
Flight Rules
Forecast Maps
Temperature Forecast
Maximum Temperature Forecast
Minimum Temperature Forecast
Dewpoint Forecast
Prevalent Weather
12Hr Probability of Precip.
Sky Cover
Health Maps
UV Forecast
Air Quality
Peak Air Quality Index
Weather Station
Davis Instruments Vantage Pro
Current Conditions [Select Refresh to Update]

Updated: 1:28pm on 12/18/14

(location)
Currently:
27.0F

Clear
Overcast

High: 27.1 F< 
(1:15pm
Low: 18.9 F 
(7:55am)
Wind: NNE 2 mph
Light Air
Gust: 4 mph
Today's High Wind: 7 mph (10:55am)
Humidity: 78%
Pressure: 30.29 in  (Steady
Pressure Rate: -0.016 in/hr
Dew Point: 21.1F
Wind Chill: 25.5 F
Heat Index (feels like): 31.0 F
Comfort Level: Uncomfortably Cold
Temperature Rate:  0.68F/hr
 
5 Day Forecast
 
Thu Fri Sat Sun Mon
Clear Clear Clear Clear Clear
Partly Cloudy Partly Cloudy Mostly Cloudy Mostly Cloudy Cloudy
30 32 36 36 37
23 27 25 28 34

Records and Normals
 
Temperature Forecast Normal Record
High 30 0 0
(0)
Low 23 0 0
(0)
 
Links
 
 
Weather Advisories
No Advisories
Full Advisory Text...
Weather Map

Web Cam

Almanac
 
Sunrise:  
7:16am
Moonrise: 
3:27am

Moon Phase:
13%

Sunset: 
4:23pm
Moonset:  
2:07pm
 Star Chart...
Rainfall Totals
Hourly Rain 0.00 in
Daily Rain: 0.00 in
Monthly Rain: 0.27 in
Yearly Rain: 35.50 in
Normal Rain, month to date: 0.00 in
Normal Rain, year to date: 0.00 in
Link to Village of Campton Hills Map

Link to Counties of Illinois Map

Local Weather Exchange Network
Station ID City 
(Click for Map Location)
Neighborhood 
(Click for History)
Last Update (Date & Time) Temperature
 ()
Dew
Point ()
Humidity 
(%)
Wind 
(mph)
from the Wind Gust 
(mph) 
Pressure(in) Hourly
Rain(in)
KILSTCHA10 St. Charles Hunt Club 12/18 13:21:43 28.4 20.0 72 0 NNE 0 29.80 0.00
KILWAYNE4 Wayne Hampton Course 12/18 13:21:34 30.4 23.0 75 0 North 0 30.33 0.00
KILCAMPT3 Campton Hills Campton Hills 12/18 13:22:06 27.8 19.0 70 0 NW 0 30.30 0.00
KILSTCHA11 St. Charles 3 Lakes 12/18 13:20:28 28.7 22.0 74 2 North 0 30.05 0.00
KILGENEV6 Geneva Dover Ridge 12/18 13:21:58 27.4 21.0 76 5 NNW 5 30.26 0.00
KILSTCHA8 St. Charles Ronzheimer Ave. & S. Tyler Rd. 12/18 13:22:14 28.0 21.0 75 2 North 3 30.25 0.00
KILGENEV3 Geneva Mill Creek (NE) 12/18 13:22:09 29.1 22.0 75 0 WNW 4 30.33 0.00
KILSTCHA1 St Charles CamptonHillsWeather.com Central Kane County 12/18 13:22:14 27.1 22.0 79 2 North 4 30.29 0.00
KILGENEV7 Geneva Eldorado Drive 12/18 13:21:10 30.9 29.0 93 0 North 0 30.15 0.00
KILELGIN13 Elgin Creek Side 12/18 13:22:10 32.0 23.0 70 0 SW 0 29.31 0.00
KILSOUTH5 South Elgin Concord Park 12/18 13:14:09 30.4 25.0 80 0 SSW 0 29.98 0.00
KILGENEV2 Geneva Mill Creek 12/18 13:20:35 26.3 20.0 77 0 WNW 3 30.23 0.00
KILBATAV1 Batavia Tri-Cities on the Fox River 12/18 13:21:08 28.8 18.0 65 0 SW 4 30.29 0.00
KILELBUR5 Elburn Prairie Highlands 12/18 13:20:17 27.8 22.0 80 1 West 4 30.28 0.00
KILBATAV3 Batavia West Batavia 12/18 13:15:33 26.8 21.0 77 0 WSW 0 30.24 0.00
KILELBUR6 Elburn Columbine Square 12/18 13:09:43 26.1 20.0 79 1 WNW 3 30.24 0.00
KILBATAV5 Batavia Fermi National Accelerator Laboratory 12/18 13:15:28 28.9 21.0 73 4 SW 6 30.23 0.00
KILELBUR8 Elburn Columbine 12/18 13:14:03 27.6 21.0 75 1 WSW 4 30.25 0.00
KILWESTC5 West Chicago THEBROWNHOUSE.ORG 12/18 13:22:04 32.0 14.0 48 0 North 0 30.20 0.00
KILWESTC8 West Chicago Ingalton Hills Estates 12/18 13:22:13 27.0 20.0 74 6 SW 6 30.42 0.00
KILELGIN10 Elgin Wing Park 12/18 13:20:23 30.2 17.0 58 2 North 3 29.39 0.00
KILELGIN14 Elgin Elgin, IL 12/18 13:22:11 27.1 21.0 76 0 NW 3 30.15 0.00
KILGILBE2 Gilberts Gilberts, IL 12/18 13:22:11 27.9 20.0 71 4 NE 4 29.91 0.00
KILELGIN11 Elgin Trout Park 12/18 13:22:12 27.0 15.0 59 6 North 7 30.23 0.00
KILWINFI2 Winfield Winfield Heights (SarahNet) 12/18 13:16:05 30.3 22.0 71 0 SW 0 30.27 0.00
KILSLEEP3 Sleepy Hollow SLEEPY HOLLOW 12/18 13:22:13 27.4 20.0 74 2 WSW 3 29.71 0.00
KILCAROL6 Carol Stream Merbach Ct 12/18 13:22:14 29.3 20.0 69 3 West 4 29.84 0.00
KILSLEEP2 Sleepy Hollow Sleepy Hollow Manor 12/18 13:19:08 26.8 21.0 79 3 NNE 0 30.13 0.00
KILWARRE2 Warrenville meso_neigh29 12/18 13:22:02 28.9 22.0 74 3 West 3 30.25 0.00
KILSTREA12 Streamwood Petri Dish 12/18 13:17:58 28.4 19.0 67 3 NNW 0 30.05 0.00
KILHANOV2 Hanover Park meso_neigh31 12/18 13:21:24 27.7 13.0 54 2 NE 4 30.27 0.00
KILWHEAT8 Wheaton Wheaton Sanitary District 12/18 13:08:10 29.7 22.0 74 0 West 6 30.28 0.00
KILWHEAT5 Wheaton N9ABF - West Wheaton 12/18 13:02:44 29.7 20.0 66 0 NW 0 30.19 0.00
KILSCHAU9 Schaumburg Schaumburg West 12/18 13:22:13 28.6 27.0 94 1 NNW 4 30.08 0.00
KILEASTD2 East Dundee Rock Road Industrial Park 12/18 13:19:44 26.8 16.0 64 1 WNW 7 30.20 0.00
KDPA Chicago DuPage Official Station 12/18 12:52:00 29.0 18.0 64 0 North --- 30.26 ---
KARR Aurora Official Station 12/18 12:52:00 25.0 16.0 69 0 North --- 30.28 ---
KDKB DeKalb Official Station 12/18 13:15:00 24.0 17.0 74 5 NNW --- 30.23 ---
KORD Chicago Official Station 12/18 12:51:00 27.0 18.0 69 7 NW --- 30.26 ---
Full Advisory Text
No Warnings

Ambient Weather and Weather Underground
 Never base important decisions on this or any weather information obtained from the Internet
Updated Automatically by Ambient Weather's Virtual Weather Station  V13.01